Voltar ao catálogo

STARLINK-31263

AtivoComunicaçõesVLEO
NORAD 58832·PAYLOAD·🇺🇸 United States

Lançado Jan 24, 2024 de Vandenberg Space Force Base

Loading…

Próximas Passagens (próximas 24 horas)

TLE

AtualizadoSource: CelesTrak SupGP

Época: Sep 15, 2026, 02:50 UTC

1 58832C 24017G   26258.11854167  .00023325  00000+0  68894-3 0  2586
2 58832  53.1590  30.6112 0001167  92.9002 260.0600 15.34388145    18

Acompanhe STARLINK-31263 em tempo real com AllMySat

Download on the App Store